Location: Bologna
(44.4830°N, 11.3330°E)
Time: 05:24:37
(UTC+01:00)

ISS - Visible Passes

Search period start: 20 January 2019 00:00
Search period end: 30 January 2019 00:00
Orbit: 404 x 410 km, 51.6° (Epoch: 20 January)

Date Brightness Start Highest point End Pass type
(mag) Time Alt. Az. Time Alt. Az. Time Alt. Az.
21 Jan -1.7 18:44:38 10° S 18:46:04 16° SSE 18:46:04 16° SSE visible
22 Jan -1.8 19:28:23 10° SW 19:29:55 25° SW 19:29:55 25° SW visible
23 Jan -3.1 18:37:16 10° SSW 18:40:21 37° SE 18:40:56 34° ESE visible
24 Jan -2.1 17:46:32 10° S 17:49:06 21° SE 17:51:42 10° E visible
24 Jan -2.6 19:22:08 10° WSW 19:24:36 43° W 19:24:36 43° W visible
25 Jan -3.9 18:30:41 10° WSW 18:33:58 85° SSE 18:35:27 30° ENE visible
25 Jan -0.3 20:07:54 10° WNW 20:08:10 12° WNW 20:08:10 12° WNW visible
26 Jan -2.5 19:16:10 10° W 19:18:57 34° NNW 19:18:57 34° NNW visible
27 Jan -3.2 18:24:29 10° W 18:27:41 48° NNW 18:29:41 20° NE visible
27 Jan -0.5 20:02:01 10° WNW 20:02:24 12° NW 20:02:24 12° NW visible
28 Jan -2.2 19:10:16 10° WNW 19:13:05 25° N 19:13:05 25° N visible
29 Jan -2.5 18:18:29 10° W 18:21:29 31° NNW 18:23:44 15° NE visible
29 Jan -0.7 19:55:57 10° NW 19:56:27 13° NW 19:56:27 13° NW visible
